Year,Month,Day,Hour,Minute,Value (Times are PST for temperature in C)
2012,08,04,00,00,24.40
2012,08,04,00,01,24.40
2012,08,04,00,02,24.40
2012,08,04,00,03,24.40
2012,08,04,00,04,24.40
2012,08,04,00,05,24.30
2012,08,04,00,06,24.30
2012,08,04,00,07,24.30
2012,08,04,00,08,24.30
2012,08,04,00,09,24.30
2012,08,04,00,10,24.20
2012,08,04,00,11,24.20
2012,08,04,00,12,24.20
2012,08,04,00,13,24.20
2012,08,04,00,14,24.10
2012,08,04,00,15,24.10
2012,08,04,00,16,24.10
2012,08,04,00,17,24.10
2012,08,04,00,18,24.00
2012,08,04,00,19,24.00
2012,08,04,00,20,23.90
2012,08,04,00,21,23.90
2012,08,04,00,22,23.90
2012,08,04,00,23,23.90
2012,08,04,00,24,23.80
2012,08,04,00,25,23.80
2012,08,04,00,26,23.80
2012,08,04,00,27,23.80
2012,08,04,00,28,23.70
2012,08,04,00,29,23.70
2012,08,04,00,30,23.70
2012,08,04,00,31,23.70
2012,08,04,00,32,23.70
2012,08,04,00,33,23.70
2012,08,04,00,34,23.70
2012,08,04,00,35,23.60
2012,08,04,00,36,23.60
2012,08,04,00,37,23.60
2012,08,04,00,38,23.60
2012,08,04,00,39,23.60
2012,08,04,00,40,23.50
2012,08,04,00,41,23.50
2012,08,04,00,42,23.50
2012,08,04,00,43,23.40
2012,08,04,00,44,23.40
2012,08,04,00,45,23.40
2012,08,04,00,46,23.30
2012,08,04,00,47,23.30
2012,08,04,00,48,23.30
2012,08,04,00,49,23.30
2012,08,04,00,50,23.30
2012,08,04,00,51,23.20
2012,08,04,00,52,23.20
2012,08,04,00,53,23.20
2012,08,04,00,54,23.20
2012,08,04,00,55,23.10
2012,08,04,00,56,23.10
2012,08,04,00,57,23.10
2012,08,04,00,58,23.10
2012,08,04,00,59,23.00
2012,08,04,01,00,23.00
2012,08,04,01,01,22.90
2012,08,04,01,02,22.90
2012,08,04,01,03,22.80
2012,08,04,01,04,22.80
2012,08,04,01,05,22.80
2012,08,04,01,06,22.70
2012,08,04,01,07,22.70
2012,08,04,01,08,22.70
2012,08,04,01,09,22.60
2012,08,04,01,10,22.60
2012,08,04,01,11,22.60
2012,08,04,01,12,22.50
2012,08,04,01,13,22.50
2012,08,04,01,14,22.40
2012,08,04,01,15,22.40
2012,08,04,01,16,22.30
2012,08,04,01,17,22.30
2012,08,04,01,18,22.30
2012,08,04,01,19,22.30
2012,08,04,01,20,22.30
2012,08,04,01,21,22.30
2012,08,04,01,22,22.30
2012,08,04,01,23,22.30
2012,08,04,01,24,22.20
2012,08,04,01,25,22.20
2012,08,04,01,26,22.20
2012,08,04,01,27,22.20
2012,08,04,01,28,22.20
2012,08,04,01,29,22.20
2012,08,04,01,30,22.20
2012,08,04,01,31,22.30
2012,08,04,01,32,22.30
2012,08,04,01,33,22.30
2012,08,04,01,34,22.30
2012,08,04,01,35,22.30
2012,08,04,01,36,22.30
2012,08,04,01,37,22.30
2012,08,04,01,38,22.30
2012,08,04,01,39,22.30
2012,08,04,01,40,22.30
2012,08,04,01,41,22.20
2012,08,04,01,42,22.20
2012,08,04,01,43,22.20
2012,08,04,01,44,22.20
2012,08,04,01,45,22.20
2012,08,04,01,46,22.10
2012,08,04,01,47,22.10
2012,08,04,01,48,22.10
2012,08,04,01,49,22.10
2012,08,04,01,50,22.10
2012,08,04,01,51,22.10
2012,08,04,01,52,22.10
2012,08,04,01,53,22.00
2012,08,04,01,54,22.00
2012,08,04,01,55,22.00
2012,08,04,01,56,22.00
2012,08,04,01,57,21.90
2012,08,04,01,58,21.90
2012,08,04,01,59,21.90
2012,08,04,02,00,21.90
2012,08,04,02,01,21.90
2012,08,04,02,02,21.90
2012,08,04,02,03,21.90
2012,08,04,02,04,21.90
2012,08,04,02,05,21.80
2012,08,04,02,06,21.80
2012,08,04,02,07,21.80
2012,08,04,02,08,21.80
2012,08,04,02,09,21.80
2012,08,04,02,10,21.80
2012,08,04,02,11,21.80
2012,08,04,02,12,21.80
2012,08,04,02,13,21.80
2012,08,04,02,14,21.80
2012,08,04,02,15,21.70
2012,08,04,02,16,21.70
2012,08,04,02,17,21.70
2012,08,04,02,18,21.70
2012,08,04,02,19,21.70
2012,08,04,02,20,21.70
2012,08,04,02,21,21.70
2012,08,04,02,22,21.60
2012,08,04,02,23,21.60
2012,08,04,02,24,21.60
2012,08,04,02,25,21.60
2012,08,04,02,26,21.60
2012,08,04,02,27,21.60
2012,08,04,02,28,21.50
2012,08,04,02,29,21.50
2012,08,04,02,30,21.50
2012,08,04,02,31,21.40
2012,08,04,02,32,21.40
2012,08,04,02,33,21.40
2012,08,04,02,34,21.40
2012,08,04,02,35,21.40
2012,08,04,02,36,21.40
2012,08,04,02,37,21.40
2012,08,04,02,38,21.40
2012,08,04,02,39,21.40
2012,08,04,02,40,21.40
2012,08,04,02,41,21.40
2012,08,04,02,42,21.40
2012,08,04,02,43,21.40
2012,08,04,02,44,21.40
2012,08,04,02,45,21.40
2012,08,04,02,46,21.40
2012,08,04,02,47,21.40
2012,08,04,02,48,21.40
2012,08,04,02,49,21.40
2012,08,04,02,50,21.40
2012,08,04,02,51,21.40
2012,08,04,02,52,21.40
2012,08,04,02,53,21.40
2012,08,04,02,54,21.40
2012,08,04,02,55,21.30
2012,08,04,02,56,21.30
2012,08,04,02,57,21.30
2012,08,04,02,58,21.20
2012,08,04,02,59,21.20
2012,08,04,03,00,21.20
2012,08,04,03,01,21.20
2012,08,04,03,02,21.20
2012,08,04,03,03,21.20
2012,08,04,03,04,21.20
2012,08,04,03,05,21.20
2012,08,04,03,06,21.20
2012,08,04,03,07,21.20
2012,08,04,03,08,21.20
2012,08,04,03,09,21.20
2012,08,04,03,10,21.20
2012,08,04,03,11,21.20
2012,08,04,03,12,21.20
2012,08,04,03,13,21.20
2012,08,04,03,14,21.20
2012,08,04,03,15,21.20
2012,08,04,03,16,21.20
2012,08,04,03,17,21.20
2012,08,04,03,18,21.20
2012,08,04,03,19,21.20
2012,08,04,03,20,21.20
2012,08,04,03,21,21.20
2012,08,04,03,22,21.20
2012,08,04,03,23,21.20
2012,08,04,03,24,21.20
2012,08,04,03,25,21.20
2012,08,04,03,26,21.20
2012,08,04,03,27,21.20
2012,08,04,03,28,21.20
2012,08,04,03,29,21.20
2012,08,04,03,30,21.20
2012,08,04,03,31,21.20
2012,08,04,03,32,21.20
2012,08,04,03,33,21.20
2012,08,04,03,34,21.20
2012,08,04,03,35,21.20
2012,08,04,03,36,21.20
2012,08,04,03,37,21.20
2012,08,04,03,38,21.20
2012,08,04,03,39,21.20
2012,08,04,03,40,21.20
2012,08,04,03,41,21.20
2012,08,04,03,42,21.20
2012,08,04,03,43,21.20
2012,08,04,03,44,21.30
2012,08,04,03,45,21.30
2012,08,04,03,46,21.30
2012,08,04,03,47,21.30
2012,08,04,03,48,21.30
2012,08,04,03,49,21.30
2012,08,04,03,50,21.30
2012,08,04,03,51,21.30
2012,08,04,03,52,21.30
2012,08,04,03,53,21.30
2012,08,04,03,54,21.40
2012,08,04,03,55,21.30
2012,08,04,03,56,21.40
2012,08,04,03,57,21.40
2012,08,04,03,58,21.40
2012,08,04,03,59,21.40
2012,08,04,04,00,21.40
2012,08,04,04,01,21.40
2012,08,04,04,02,21.40
2012,08,04,04,03,21.40
2012,08,04,04,04,21.40
2012,08,04,04,05,21.40
2012,08,04,04,06,21.40
2012,08,04,04,07,21.40
2012,08,04,04,08,21.40
2012,08,04,04,09,21.40
2012,08,04,04,10,21.40
2012,08,04,04,11,21.40
2012,08,04,04,12,21.40
2012,08,04,04,13,21.40
2012,08,04,04,14,21.40
2012,08,04,04,15,21.40
2012,08,04,04,16,21.40
2012,08,04,04,17,21.40
2012,08,04,04,18,21.30
2012,08,04,04,19,21.30
2012,08,04,04,20,21.30
2012,08,04,04,21,21.30
2012,08,04,04,22,21.30
2012,08,04,04,23,21.30
2012,08,04,04,24,21.30
2012,08,04,04,25,21.30
2012,08,04,04,26,21.20
2012,08,04,04,27,21.20
2012,08,04,04,28,21.20
2012,08,04,04,29,21.20
2012,08,04,04,30,21.20
2012,08,04,04,31,21.20
2012,08,04,04,32,21.10
2012,08,04,04,33,21.10
2012,08,04,04,34,21.10
2012,08,04,04,35,21.10
2012,08,04,04,36,21.10
2012,08,04,04,37,21.10
2012,08,04,04,38,21.10
2012,08,04,04,39,21.10
2012,08,04,04,40,21.10
2012,08,04,04,41,21.10
2012,08,04,04,42,21.10
2012,08,04,04,43,21.10
2012,08,04,04,44,21.10
2012,08,04,04,45,21.10
2012,08,04,04,46,21.10
2012,08,04,04,47,21.10
2012,08,04,04,48,21.10
2012,08,04,04,49,21.10
2012,08,04,04,50,21.10
2012,08,04,04,51,21.10
2012,08,04,04,52,21.10
2012,08,04,04,53,21.10
2012,08,04,04,54,21.00
2012,08,04,04,55,21.00
2012,08,04,04,56,21.00
2012,08,04,04,57,20.90
2012,08,04,04,58,20.90
2012,08,04,04,59,20.90
2012,08,04,05,00,20.80
2012,08,04,05,01,20.80
2012,08,04,05,02,20.80
2012,08,04,05,03,20.80
2012,08,04,05,04,20.70
2012,08,04,05,05,20.70
2012,08,04,05,06,20.70
2012,08,04,05,07,20.70
2012,08,04,05,08,20.70
2012,08,04,05,09,20.70
2012,08,04,05,10,20.70
2012,08,04,05,11,20.70
2012,08,04,05,12,20.70
2012,08,04,05,13,20.70
2012,08,04,05,14,20.70
2012,08,04,05,15,20.70
2012,08,04,05,16,20.70
2012,08,04,05,17,20.70
2012,08,04,05,18,20.70
2012,08,04,05,19,20.70
2012,08,04,05,20,20.70
2012,08,04,05,21,20.70
2012,08,04,05,22,20.70
2012,08,04,05,23,20.70
2012,08,04,05,24,20.80
2012,08,04,05,25,20.80
2012,08,04,05,26,20.80
2012,08,04,05,27,20.80
2012,08,04,05,28,20.80
2012,08,04,05,29,20.90
2012,08,04,05,30,20.90
2012,08,04,05,31,20.90
2012,08,04,05,32,20.90
2012,08,04,05,33,20.90
2012,08,04,05,34,20.90
2012,08,04,05,35,20.90
2012,08,04,05,36,20.90
2012,08,04,05,37,20.90
2012,08,04,05,38,20.90
2012,08,04,05,39,20.90
2012,08,04,05,40,20.90
2012,08,04,05,41,20.80
2012,08,04,05,42,20.80
2012,08,04,05,43,20.80
2012,08,04,05,44,20.80
2012,08,04,05,45,20.80
2012,08,04,05,46,20.80
2012,08,04,05,47,20.80
2012,08,04,05,48,20.80
2012,08,04,05,49,20.70
2012,08,04,05,50,20.70
2012,08,04,05,51,20.70
2012,08,04,05,52,20.70
2012,08,04,05,53,20.70
2012,08,04,05,54,20.70
2012,08,04,05,55,20.70
2012,08,04,05,56,20.70
2012,08,04,05,57,20.70
2012,08,04,05,58,20.70
2012,08,04,05,59,20.70
2012,08,04,06,00,20.70
2012,08,04,06,01,20.70
2012,08,04,06,02,20.70
2012,08,04,06,03,20.70
2012,08,04,06,04,20.60
2012,08,04,06,05,20.60
2012,08,04,06,06,20.60
2012,08,04,06,07,20.60
2012,08,04,06,08,20.60
2012,08,04,06,09,20.60
2012,08,04,06,10,20.60
2012,08,04,06,11,20.60
2012,08,04,06,12,20.60
2012,08,04,06,13,20.60
2012,08,04,06,14,20.60
2012,08,04,06,15,20.60
2012,08,04,06,16,20.60
2012,08,04,06,17,20.50
2012,08,04,06,18,20.50
2012,08,04,06,19,20.50
2012,08,04,06,20,20.50
2012,08,04,06,21,20.50
2012,08,04,06,22,20.50
2012,08,04,06,23,20.50
2012,08,04,06,24,20.50
2012,08,04,06,25,20.50
2012,08,04,06,26,20.50
2012,08,04,06,27,20.60
2012,08,04,06,28,20.60
2012,08,04,06,29,20.60
2012,08,04,06,30,20.60
2012,08,04,06,31,20.60
2012,08,04,06,32,20.60
2012,08,04,06,33,20.60
2012,08,04,06,34,20.70
2012,08,04,06,35,20.70
2012,08,04,06,36,20.70
2012,08,04,06,37,20.70
2012,08,04,06,38,20.70
2012,08,04,06,39,20.70
2012,08,04,06,40,20.70
2012,08,04,06,41,20.80
2012,08,04,06,42,20.80
2012,08,04,06,43,20.70
2012,08,04,06,44,20.70
2012,08,04,06,45,20.70
2012,08,04,06,46,20.70
2012,08,04,06,47,20.70
2012,08,04,06,48,20.70
2012,08,04,06,49,20.70
2012,08,04,06,50,20.70
2012,08,04,06,51,20.70
2012,08,04,06,52,20.60
2012,08,04,06,53,20.60
2012,08,04,06,54,20.70
2012,08,04,06,55,20.70
2012,08,04,06,56,20.70
2012,08,04,06,57,20.70
2012,08,04,06,58,20.80
2012,08,04,06,59,20.80
2012,08,04,07,00,20.80
2012,08,04,07,01,20.90
2012,08,04,07,02,20.90
2012,08,04,07,03,20.90
2012,08,04,07,04,21.00
2012,08,04,07,05,21.00
2012,08,04,07,06,21.00
2012,08,04,07,07,21.00
2012,08,04,07,08,21.10
2012,08,04,07,09,21.10
2012,08,04,07,10,21.10
2012,08,04,07,11,21.20
2012,08,04,07,12,21.20
2012,08,04,07,13,21.20
2012,08,04,07,14,21.20
2012,08,04,07,15,21.20
2012,08,04,07,16,21.20
2012,08,04,07,17,21.20
2012,08,04,07,18,21.30
2012,08,04,07,19,21.30
2012,08,04,07,20,21.30
2012,08,04,07,21,21.30
2012,08,04,07,22,21.30
2012,08,04,07,23,21.30
2012,08,04,07,24,21.30
2012,08,04,07,25,21.30
2012,08,04,07,26,21.30
2012,08,04,07,27,21.30
2012,08,04,07,28,21.30
2012,08,04,07,29,21.30
2012,08,04,07,30,21.30
2012,08,04,07,31,21.30
2012,08,04,07,32,21.40
2012,08,04,07,33,21.40
2012,08,04,07,34,21.40
2012,08,04,07,35,21.40
2012,08,04,07,36,21.40
2012,08,04,07,37,21.40
2012,08,04,07,38,21.40
2012,08,04,07,39,21.40
2012,08,04,07,40,21.40
2012,08,04,07,41,21.40
2012,08,04,07,42,21.40
2012,08,04,07,43,21.40
2012,08,04,07,44,21.50
2012,08,04,07,45,21.50
2012,08,04,07,46,21.50
2012,08,04,07,47,21.50
2012,08,04,07,48,21.50
2012,08,04,07,49,21.60
2012,08,04,07,50,21.60
2012,08,04,07,51,21.60
2012,08,04,07,52,21.60
2012,08,04,07,53,21.60
2012,08,04,07,54,21.60
2012,08,04,07,55,21.70
2012,08,04,07,56,21.70
2012,08,04,07,57,21.70
2012,08,04,07,58,21.70
2012,08,04,07,59,21.70
2012,08,04,08,00,21.70
2012,08,04,08,01,21.70
2012,08,04,08,02,21.70
2012,08,04,08,03,21.70
2012,08,04,08,04,21.70
2012,08,04,08,05,21.80
2012,08,04,08,06,21.80
2012,08,04,08,07,21.80
2012,08,04,08,08,21.80
2012,08,04,08,09,21.80
2012,08,04,08,10,21.80
2012,08,04,08,11,21.80
2012,08,04,08,12,21.80
2012,08,04,08,13,21.80
2012,08,04,08,14,21.80
2012,08,04,08,15,21.90
2012,08,04,08,16,21.90
2012,08,04,08,17,21.90
2012,08,04,08,18,21.90
2012,08,04,08,19,21.90
2012,08,04,08,20,21.90
2012,08,04,08,21,21.90
2012,08,04,08,22,21.90
2012,08,04,08,23,21.90
2012,08,04,08,24,21.90
2012,08,04,08,25,21.90
2012,08,04,08,26,21.90
2012,08,04,08,27,22.00
2012,08,04,08,28,22.10
2012,08,04,08,29,22.10
2012,08,04,08,30,22.10
2012,08,04,08,31,22.10
2012,08,04,08,32,22.10
2012,08,04,08,33,22.10
2012,08,04,08,34,22.20
2012,08,04,08,35,22.20
2012,08,04,08,36,22.20
2012,08,04,08,37,22.20
2012,08,04,08,38,22.20
2012,08,04,08,39,22.30
2012,08,04,08,40,22.30
2012,08,04,08,41,22.30
2012,08,04,08,42,22.40
2012,08,04,08,43,22.40
2012,08,04,08,44,22.50
2012,08,04,08,45,22.60
2012,08,04,08,46,22.60
2012,08,04,08,47,22.70
2012,08,04,08,48,22.70
2012,08,04,08,49,22.80
2012,08,04,08,50,22.80
2012,08,04,08,51,22.90
2012,08,04,08,52,23.00
2012,08,04,08,53,23.00
2012,08,04,08,54,23.10
2012,08,04,08,55,23.20
2012,08,04,08,56,23.20
2012,08,04,08,57,23.10
2012,08,04,08,58,23.00
2012,08,04,08,59,22.90
2012,08,04,09,00,22.80
2012,08,04,09,01,22.70
2012,08,04,09,02,22.60
2012,08,04,09,03,22.50
2012,08,04,09,04,22.40
2012,08,04,09,05,22.30
2012,08,04,09,06,22.20
2012,08,04,09,07,22.20
2012,08,04,09,08,22.20
2012,08,04,09,09,22.20
2012,08,04,09,10,22.20
2012,08,04,09,11,22.20
2012,08,04,09,12,22.30
2012,08,04,09,13,22.30
2012,08,04,09,14,22.30
2012,08,04,09,15,22.30
2012,08,04,09,16,22.30
2012,08,04,09,17,22.30
2012,08,04,09,18,22.30
2012,08,04,09,19,22.30
2012,08,04,09,20,22.30
2012,08,04,09,21,22.30
2012,08,04,09,22,22.20
2012,08,04,09,23,22.20
2012,08,04,09,24,22.30
2012,08,04,09,25,22.30
2012,08,04,09,26,22.20
2012,08,04,09,27,22.20
2012,08,04,09,28,22.20
2012,08,04,09,29,22.20
2012,08,04,09,30,22.20
2012,08,04,09,31,22.20
2012,08,04,09,32,22.30
2012,08,04,09,33,22.30
2012,08,04,09,34,22.30
2012,08,04,09,35,22.30
2012,08,04,09,36,22.30
2012,08,04,09,37,22.30
2012,08,04,09,38,22.40
2012,08,04,09,39,22.40
2012,08,04,09,40,22.40
2012,08,04,09,41,22.50
2012,08,04,09,42,22.50
2012,08,04,09,43,22.50
2012,08,04,09,44,22.50
2012,08,04,09,45,22.50
2012,08,04,09,46,22.50
2012,08,04,09,47,22.50
2012,08,04,09,48,22.50
2012,08,04,09,49,22.50
2012,08,04,09,50,22.60
2012,08,04,09,51,22.60
2012,08,04,09,52,22.70
2012,08,04,09,53,22.70
2012,08,04,09,54,22.70
2012,08,04,09,55,22.60
2012,08,04,09,56,22.60
2012,08,04,09,57,22.60
2012,08,04,09,58,22.70
2012,08,04,09,59,22.70
2012,08,04,10,00,22.70
2012,08,04,10,01,22.70
2012,08,04,10,02,22.80
2012,08,04,10,03,22.80
2012,08,04,10,04,22.90
2012,08,04,10,05,23.00
2012,08,04,10,06,23.00
2012,08,04,10,07,23.00
2012,08,04,10,08,23.00
2012,08,04,10,09,23.10
2012,08,04,10,10,23.10
2012,08,04,10,11,23.10
2012,08,04,10,12,23.10
2012,08,04,10,13,23.10
2012,08,04,10,14,23.10
2012,08,04,10,15,23.20
2012,08,04,10,16,23.20
2012,08,04,10,17,23.20
2012,08,04,10,18,23.20
2012,08,04,10,19,23.30
2012,08,04,10,20,23.30
2012,08,04,10,21,23.40
2012,08,04,10,22,23.40
2012,08,04,10,23,23.40
2012,08,04,10,24,23.40
2012,08,04,10,25,23.40
2012,08,04,10,26,23.30
2012,08,04,10,27,23.40
2012,08,04,10,28,23.40
2012,08,04,10,29,23.40
2012,08,04,10,30,23.40
2012,08,04,10,31,23.40
2012,08,04,10,32,23.50
2012,08,04,10,33,23.50
2012,08,04,10,34,23.60
2012,08,04,10,35,23.60
2012,08,04,10,36,23.60
2012,08,04,10,37,23.60
2012,08,04,10,38,23.60
2012,08,04,10,39,23.60
2012,08,04,10,40,23.70
2012,08,04,10,41,23.70
2012,08,04,10,42,23.70
2012,08,04,10,43,23.70
2012,08,04,10,44,23.70
2012,08,04,10,45,23.70
2012,08,04,10,46,23.70
2012,08,04,10,47,23.80
2012,08,04,10,48,23.80
2012,08,04,10,49,23.90
2012,08,04,10,50,23.90
2012,08,04,10,51,24.00
2012,08,04,10,52,24.10
2012,08,04,10,53,24.20
2012,08,04,10,54,24.20
2012,08,04,10,55,24.30
2012,08,04,10,56,24.30
2012,08,04,10,57,24.30
2012,08,04,10,58,24.30
2012,08,04,10,59,24.40
2012,08,04,11,00,24.30
2012,08,04,11,01,24.30
2012,08,04,11,02,24.30
2012,08,04,11,03,24.20
2012,08,04,11,04,24.20
2012,08,04,11,05,24.20
2012,08,04,11,06,24.30
2012,08,04,11,07,24.40
2012,08,04,11,08,24.40
2012,08,04,11,09,24.40
2012,08,04,11,10,24.30
2012,08,04,11,11,24.20
2012,08,04,11,12,24.20
2012,08,04,11,13,24.30
2012,08,04,11,14,24.30
2012,08,04,11,15,24.40
2012,08,04,11,16,24.40
2012,08,04,11,17,24.40
2012,08,04,11,18,24.50
2012,08,04,11,19,24.50
2012,08,04,11,20,24.60
2012,08,04,11,21,24.70
2012,08,04,11,22,24.70
2012,08,04,11,23,24.80
2012,08,04,11,24,24.80
2012,08,04,11,25,24.90
2012,08,04,11,26,24.90
2012,08,04,11,27,24.90
2012,08,04,11,28,24.90
2012,08,04,11,29,24.90
2012,08,04,11,30,25.00
2012,08,04,11,31,25.00
2012,08,04,11,32,25.00
2012,08,04,11,33,25.10
2012,08,04,11,34,25.10
2012,08,04,11,35,25.10
2012,08,04,11,36,25.00
2012,08,04,11,37,25.00
2012,08,04,11,38,25.00
2012,08,04,11,39,24.90
2012,08,04,11,40,24.90
2012,08,04,11,41,24.90
2012,08,04,11,42,24.90
2012,08,04,11,43,24.90
2012,08,04,11,44,25.00
2012,08,04,11,45,25.00
2012,08,04,11,46,25.00
2012,08,04,11,47,25.00
2012,08,04,11,48,25.00
2012,08,04,11,49,25.00
2012,08,04,11,50,25.00
2012,08,04,11,51,25.10
2012,08,04,11,52,25.10
2012,08,04,11,53,25.10
2012,08,04,11,54,25.10
2012,08,04,11,55,25.10
2012,08,04,11,56,25.10
2012,08,04,11,57,25.10
2012,08,04,11,58,25.20
2012,08,04,11,59,25.20
2012,08,04,12,00,25.30
2012,08,04,12,01,25.30
2012,08,04,12,02,25.30
2012,08,04,12,03,25.40
2012,08,04,12,04,25.40
2012,08,04,12,05,25.40
2012,08,04,12,06,25.40
2012,08,04,12,07,25.40
2012,08,04,12,08,25.30
2012,08,04,12,09,25.30
2012,08,04,12,10,25.20
2012,08,04,12,11,25.20
2012,08,04,12,12,25.20
2012,08,04,12,13,25.30
2012,08,04,12,14,25.30
2012,08,04,12,15,25.30
2012,08,04,12,16,25.30
2012,08,04,12,17,25.40
2012,08,04,12,18,25.50
2012,08,04,12,19,25.60
2012,08,04,12,20,25.60
2012,08,04,12,21,25.70
2012,08,04,12,22,25.70
2012,08,04,12,23,25.70
2012,08,04,12,24,25.70
2012,08,04,12,25,25.70
2012,08,04,12,26,25.70
2012,08,04,12,27,25.70
2012,08,04,12,28,25.70
2012,08,04,12,29,25.80
2012,08,04,12,30,25.80
2012,08,04,12,31,25.80
2012,08,04,12,32,25.80
2012,08,04,12,33,25.80
2012,08,04,12,34,25.90
2012,08,04,12,35,25.90
2012,08,04,12,36,25.90
2012,08,04,12,37,25.90
2012,08,04,12,38,26.00
2012,08,04,12,39,26.00
2012,08,04,12,40,26.10
2012,08,04,12,41,26.20
2012,08,04,12,42,26.20
2012,08,04,12,43,26.20
2012,08,04,12,44,26.20
2012,08,04,12,45,26.30
2012,08,04,12,46,26.30
2012,08,04,12,47,26.30
2012,08,04,12,48,26.30
2012,08,04,12,49,26.30
2012,08,04,12,50,26.30
2012,08,04,12,51,26.40
2012,08,04,12,52,26.50
2012,08,04,12,53,26.60
2012,08,04,12,54,26.60
2012,08,04,12,55,26.70
2012,08,04,12,56,26.70
2012,08,04,12,57,26.80
2012,08,04,12,58,26.80
2012,08,04,12,59,26.90
2012,08,04,13,00,26.90
2012,08,04,13,01,26.90
2012,08,04,13,02,27.00
2012,08,04,13,03,27.10
2012,08,04,13,04,27.10
2012,08,04,13,05,27.10
2012,08,04,13,06,27.10
2012,08,04,13,07,27.10
2012,08,04,13,08,27.10
2012,08,04,13,09,27.10
2012,08,04,13,10,27.20
2012,08,04,13,11,27.30
2012,08,04,13,12,27.30
2012,08,04,13,13,27.30
2012,08,04,13,14,27.30
2012,08,04,13,15,27.20
2012,08,04,13,16,27.20
2012,08,04,13,17,27.20
2012,08,04,13,18,27.20
2012,08,04,13,19,27.20
2012,08,04,13,20,27.20
2012,08,04,13,21,27.20
2012,08,04,13,22,27.20
2012,08,04,13,23,27.30
2012,08,04,13,24,27.30
2012,08,04,13,25,27.30
2012,08,04,13,26,27.40
2012,08,04,13,27,27.40
2012,08,04,13,28,27.40
2012,08,04,13,29,27.40
2012,08,04,13,30,27.50
2012,08,04,13,31,27.60
2012,08,04,13,32,27.60
2012,08,04,13,33,27.60
2012,08,04,13,34,27.60
2012,08,04,13,35,27.60
2012,08,04,13,36,27.60
2012,08,04,13,37,27.60
2012,08,04,13,38,27.70
2012,08,04,13,39,27.80
2012,08,04,13,40,27.80
2012,08,04,13,41,27.80
2012,08,04,13,42,27.80
2012,08,04,13,43,27.80
2012,08,04,13,44,27.70
2012,08,04,13,45,27.70
2012,08,04,13,46,27.70
2012,08,04,13,47,27.80
2012,08,04,13,48,27.80
2012,08,04,13,49,27.80
2012,08,04,13,50,27.70
2012,08,04,13,51,27.80
2012,08,04,13,52,27.80
2012,08,04,13,53,27.80
2012,08,04,13,54,27.80
2012,08,04,13,55,27.80
2012,08,04,13,56,27.80
2012,08,04,13,57,27.80
2012,08,04,13,58,27.80
2012,08,04,13,59,27.80
2012,08,04,14,00,27.80
2012,08,04,14,01,27.90
2012,08,04,14,02,28.00
2012,08,04,14,03,28.00
2012,08,04,14,04,28.10
2012,08,04,14,05,28.10
2012,08,04,14,06,28.10
2012,08,04,14,07,28.10
2012,08,04,14,08,28.10
2012,08,04,14,09,28.10
2012,08,04,14,10,28.20
2012,08,04,14,11,28.20
2012,08,04,14,12,28.10
2012,08,04,14,13,28.10
2012,08,04,14,14,28.10
2012,08,04,14,15,28.10
2012,08,04,14,16,28.10
2012,08,04,14,17,28.10
2012,08,04,14,18,28.10
2012,08,04,14,19,28.20
2012,08,04,14,20,28.20
2012,08,04,14,21,28.30
2012,08,04,14,22,28.30
2012,08,04,14,23,28.40
2012,08,04,14,24,28.50
2012,08,04,14,25,28.50
2012,08,04,14,26,28.50
2012,08,04,14,27,28.50
2012,08,04,14,28,28.40
2012,08,04,14,29,28.30
2012,08,04,14,30,28.30
2012,08,04,14,31,28.30
2012,08,04,14,32,28.30
2012,08,04,14,33,28.30
2012,08,04,14,34,28.30
2012,08,04,14,35,28.30
2012,08,04,14,36,28.40
2012,08,04,14,37,28.40
2012,08,04,14,38,28.40
2012,08,04,14,39,28.40
2012,08,04,14,40,28.50
2012,08,04,14,41,28.50
2012,08,04,14,42,28.40
2012,08,04,14,43,28.40
2012,08,04,14,44,28.40
2012,08,04,14,45,28.40
2012,08,04,14,46,28.50
2012,08,04,14,47,28.60
2012,08,04,14,48,28.60
2012,08,04,14,49,28.70
2012,08,04,14,50,28.70
2012,08,04,14,51,28.70
2012,08,04,14,52,28.60
2012,08,04,14,53,28.60
2012,08,04,14,54,28.70
2012,08,04,14,55,28.70
2012,08,04,14,56,28.70
2012,08,04,14,57,28.70
2012,08,04,14,58,28.70
2012,08,04,14,59,28.80
2012,08,04,15,00,28.80
2012,08,04,15,01,28.70
2012,08,04,15,02,28.70
2012,08,04,15,03,28.70
2012,08,04,15,04,28.70
2012,08,04,15,05,28.70
2012,08,04,15,06,28.70
2012,08,04,15,07,28.80
2012,08,04,15,08,28.80
2012,08,04,15,09,28.80
2012,08,04,15,10,28.70
2012,08,04,15,11,28.80
2012,08,04,15,12,28.80
2012,08,04,15,13,28.70
2012,08,04,15,14,28.70
2012,08,04,15,15,28.70
2012,08,04,15,16,28.70
2012,08,04,15,17,28.70
2012,08,04,15,18,28.70
2012,08,04,15,19,28.80
2012,08,04,15,20,28.80
2012,08,04,15,21,28.80
2012,08,04,15,22,28.80
2012,08,04,15,23,28.90
2012,08,04,15,24,28.90
2012,08,04,15,25,29.00
2012,08,04,15,26,29.00
2012,08,04,15,27,29.10
2012,08,04,15,28,29.10
2012,08,04,15,29,29.20
2012,08,04,15,30,29.20
2012,08,04,15,31,29.30
2012,08,04,15,32,29.30
2012,08,04,15,33,29.30
2012,08,04,15,34,29.30
2012,08,04,15,35,29.30
2012,08,04,15,36,29.30
2012,08,04,15,37,29.30
2012,08,04,15,38,29.40
2012,08,04,15,39,29.40
2012,08,04,15,40,29.40
2012,08,04,15,41,29.50
2012,08,04,15,42,29.50
2012,08,04,15,43,29.60
2012,08,04,15,44,29.60
2012,08,04,15,45,29.60
2012,08,04,15,46,29.60
2012,08,04,15,47,29.70
2012,08,04,15,48,29.70
2012,08,04,15,49,29.70
2012,08,04,15,50,29.60
2012,08,04,15,51,29.60
2012,08,04,15,52,29.60
2012,08,04,15,53,29.60
2012,08,04,15,54,29.70
2012,08,04,15,55,29.70
2012,08,04,15,56,29.70
2012,08,04,15,57,29.80
2012,08,04,15,58,29.80
2012,08,04,15,59,29.80
2012,08,04,16,00,29.90
2012,08,04,16,01,29.90
2012,08,04,16,02,29.90
2012,08,04,16,03,30.00
2012,08,04,16,04,30.00
2012,08,04,16,05,30.10
2012,08,04,16,06,30.10
2012,08,04,16,07,30.10
2012,08,04,16,08,30.10
2012,08,04,16,09,30.10
2012,08,04,16,10,30.20
2012,08,04,16,11,30.20
2012,08,04,16,12,30.20
2012,08,04,16,13,30.30
2012,08,04,16,14,30.40
2012,08,04,16,15,30.40
2012,08,04,16,16,30.50
2012,08,04,16,17,30.50
2012,08,04,16,18,30.50
2012,08,04,16,19,30.50
2012,08,04,16,20,30.50
2012,08,04,16,21,30.50
2012,08,04,16,22,30.50
2012,08,04,16,23,30.40
2012,08,04,16,24,30.40
2012,08,04,16,25,30.30
2012,08,04,16,26,30.30
2012,08,04,16,27,30.30
2012,08,04,16,28,30.30
2012,08,04,16,29,30.30
2012,08,04,16,30,30.30
2012,08,04,16,31,30.30
2012,08,04,16,32,30.30
2012,08,04,16,33,30.40
2012,08,04,16,34,30.50
2012,08,04,16,35,30.50
2012,08,04,16,36,30.60
2012,08,04,16,37,30.60
2012,08,04,16,38,30.60
2012,08,04,16,39,30.50
2012,08,04,16,40,30.40
2012,08,04,16,41,30.40
2012,08,04,16,42,30.40
2012,08,04,16,43,30.30
2012,08,04,16,44,30.30
2012,08,04,16,45,30.20
2012,08,04,16,46,30.20
2012,08,04,16,47,30.10
2012,08,04,16,48,30.10
2012,08,04,16,49,30.20
2012,08,04,16,50,30.20
2012,08,04,16,51,30.30
2012,08,04,16,52,30.40
2012,08,04,16,53,30.40
2012,08,04,16,54,30.40
2012,08,04,16,55,30.40
2012,08,04,16,56,30.50
2012,08,04,16,57,30.60
2012,08,04,16,58,30.60
2012,08,04,16,59,30.70
2012,08,04,17,00,30.80
2012,08,04,17,01,30.90
2012,08,04,17,02,30.90
2012,08,04,17,03,30.90
2012,08,04,17,04,30.90
2012,08,04,17,05,30.90
2012,08,04,17,06,30.90
2012,08,04,17,07,30.90
2012,08,04,17,08,30.90
2012,08,04,17,09,30.90
2012,08,04,17,10,31.00
2012,08,04,17,11,31.00
2012,08,04,17,12,31.10
2012,08,04,17,13,31.10
2012,08,04,17,14,31.20
2012,08,04,17,15,31.30
2012,08,04,17,16,31.30
2012,08,04,17,17,31.30
2012,08,04,17,18,31.30
2012,08,04,17,19,31.30